Regional Weather Roundup
Issued by NWS

Home | Current Version | Previous Version | Text Only | Print | Product List | Glossary Off
Versions: 1 2 3 4 5 6 7 8 9 10 11 12 13 14 15 16 17 18 19 20 21 22 23 24 25 26 27 28 29 30 31 32 33 34 35 36 37 38 39 40 41 42 43 44 45 46 47 48 49 50

000
ASUS46 KSTO 271509
RWRCA

NORTHERN AND CENTRAL CA REGIONAL WEATHER ROUNDUP
NATIONAL WEATHER SERVICE SACRAMENTO CA
800 AM PDT FRI MAY 27 2016

NOTE: FAIR INDICATES FEW OR NO CLOUDS BELOW 12,000 FEET WITH NO
SIGNIFICANT WEATHER AND/OR OBSTRUCTIONS TO VISIBILITY.

CAZ001-003-271600-
NORTHWEST AREA

CITY           SKY/WX    TMP DP  RH WIND       PRES   REMARKS
CRESCENT CITY  SUNNY     52  48  86 N8        30.15S
ARCATA         NOT AVBL
SHELTER COVE   NOT AVBL
UKIAH          SUNNY     56  47  71 CALM      29.99S
$$

CAZ006-505>513-271600-
BAY AREA

CITY           SKY/WX    TMP DP  RH WIND       PRES   REMARKS
SANTA ROSA     SUNNY     54  50  86 CALM      29.95S
SAN RAFAEL     N/A       52  MM  MM MISG
NAPA           MOSUNNY   57  52  83 CALM      29.96S
CONCORD        SUNNY     60  49  66 S7        29.96S
OAKLAND CITY   N/A       MM  MM  MM MISG
OAKLAND        CLOUDY    58  50  75 E6        29.98R
SAN FRAN CITY  N/A       55  MM  76 MISG
SAN FRAN ARPT  MOSUNNY   59  55  87 CALM      29.97S
LIVERMORE      SUNNY     56  49  77 CALM      29.96S
HAYWARD        PTSUNNY   57  50  77 S3        29.97S
REDWOOD CITY   N/A       MM  MM  MM MISG
MOFFETT ARPT   SUNNY     57  50  77 SE5       29.98R
SAN JOSE ARPT  MOSUNNY   57  50  77 E6        29.97S
$$
CAZ034-037-514>518-271600-
CENTRAL COAST

CITY           SKY/WX    TMP DP  RH WIND       PRES   REMARKS
WATSONVILLE    CLOUDY    53  48  83 VRB3      30.00R
SALINAS        CLOUDY    53  46  77 SE5       30.00R
MONTEREY       CLOUDY    53  48  83 CALM      30.00R
PT PIEDRAS BLS NOT AVBL
SAN LUIS OBISP CLOUDY    56  51  84 W3        29.99R FOG
SANTA MARIA    CLOUDY    54  52  93 CALM      29.98S FOG
$$
CAZ015-016-271600-
NORTHERN SACRAMENTO VALLEY

CITY           SKY/WX    TMP DP  RH WIND       PRES   REMARKS
REDDING        SUNNY     69  41  36 N12       29.96S
RED BLUFF      SUNNY     69  44  40 N8        29.96S
OROVILLE       SUNNY     68  52  56 CALM      29.95S
$$
CAZ016>018-271600-
SOUTHERN SACRAMENTO VALLEY

CITY           SKY/WX    TMP DP  RH WIND       PRES   REMARKS
AUBURN         SUNNY     63  52  67 CALM      29.98R
BEALE AFB      SUNNY     64  51  62 VRB3      29.93S
LINCOLN        FAIR      63  48  59 SE3       29.94S
MARYSVILLE     SUNNY     65  53  65 CALM      29.95R
SAC INTL ARPT  SUNNY     61  51  70 CALM      29.94R
MATHER AIRPORT SUNNY     59  50  72 SE3       29.95R
DOWNTOWN SAC   N/A       64  MM  MM MISG
SAC EXEC ARPT  SUNNY     60  51  72 NE3       29.95R
VACAVILLE      SUNNY     64  53  67 CALM      29.96R
TRAVIS AFB     SUNNY     62  52  70 W8        29.93R
$$
CAZ019>021-271600-
SAN JOAQUIN VALLEY

CITY           SKY/WX    TMP DP  RH WIND       PRES   REMARKS
STOCKTON       SUNNY     63  50  62 VRB3      29.94S
MODESTO        SUNNY     64  47  53 NW8       29.93R
MERCED         SUNNY     62  48  60 NW6       29.93R
LEMOORE        SUNNY     67  47  48 NW9       29.94R
FRESNO         SUNNY     67  52  58 E3        29.94R
HANFORD        SUNNY     67  48  50 NW6       29.93S
PORTERVILLE    SUNNY     69  50  50 S6        29.94S
BAKERSFIELD    SUNNY     70  46  42 SE6       29.93S
$$
CAZ011-012-071-271600-
NORTHERN MOUNTAINS

CITY           SKY/WX    TMP DP  RH WIND       PRES   REMARKS
YREKA          SUNNY     50  38  63 N8        30.16S
MOUNT SHASTA   SUNNY     50  38  63 VRB3      30.11F
ALTURAS        SUNNY     48  36  63 CALM      30.11F
$$
CAZ011-012-071-271600-
SIERRA NEVADA MTNS

CITY           SKY/WX    TMP DP  RH WIND       PRES   REMARKS
BLUE CANYON    SUNNY     56  37  49 VRB3      30.09R
TRUCKEE        FOG       36  36 100 CALM      30.13S VSB 1/8
TAHOE VLY ARPT SUNNY     45  39  79 CALM      30.11
MAMMOTH LAKES  FAIR      47  35  61 CALM      30.15S
$$



USA.gov is the U.S. government's official web portal to all federal, state and local government web resources and services.